Regional Weather Roundup
Issued by NWS Lake Charles, LA

Home | Current Version | Previous Version | Text Only | Print | Product List | Glossary On
Versions: 1 2 3 4 5 6 7 8 9 10 11 12 13 14 15 16 17 18 19 20 21 22 23 24 25 26 27 28 29 30 31 32 33 34 35 36 37 38 39 40 41 42 43 44 45 46 47 48 49 50
000
ASUS44 KLCH 061410
RWRLCH
REGIONAL WEATHER ROUNDUP
NATIONAL WEATHER SERVICE LAKE CHARLES LA
800 AM CST SAT FEB 06 2016

Note: "fair" indicates few or no clouds below 12,000 feet with no
significant weather and/or obstructions to visibility.


ACROSS SOUTHEAST TEXAS

CITY           SKY/WX    TMP DP  RH WIND       PRES   REMARKS
BEAUMONT       LGT RAIN  44  42  93 N9        30.35R
BEAUMONT CITY  DRIZZLE   44  41  91 NE7       30.33F
ORANGE         LGT RAIN  42  38  86 N8        30.37R
JASPER         PTSUNNY   39  38  97 E6        30.34F
$$

ACROSS CENTRAL LOUISIANA

CITY           SKY/WX    TMP DP  RH WIND       PRES   REMARKS
LEESVILLE      CLOUDY    40  32  74 NW8       30.36R
FULLERTON      CLOUDY    38  33  82 CALM      30.33
ALEXANDRIA INT CLOUDY    38  35  89 CALM      30.35R
ESLER FIELD    CLOUDY    38  32  79 CALM      30.35S
DERIDDER       LGT RAIN  38  34  84 CALM      30.39R
OAKDALE          N/A     39  36  89 CALM      30.34R
OPELOUSAS      FAIR      38  34  86 CALM      30.34F
$$

ACROSS SOUTHWEST AND SOUTH CENTRAL LOUISIANA

CITY           SKY/WX    TMP DP  RH WIND       PRES   REMARKS
SULPHUR        LGT RAIN  47  37  68 MISG      30.36R
LAKE CHARLES   CLOUDY    44  37  76 E6        30.30F
CHENNAULT INT  PTSUNNY   39  36  87 E3        30.31S
CAMERON PHI    SUNNY     52  41  66 SE10      30.32F
DEQUINCY       RAIN      40  38  91 NW8       30.38R
JENNINGS       NOT AVBL
LAFAYETTE      MOSUNNY   43  35  73 CALM      30.34R
NEW IBERIA     SUNNY     40  36  86 N3        30.36R
ABBEVILLE      PTSUNNY   40  36  84 CALM      30.34S
PATTERSON      MOSUNNY   39  36  87 CALM      30.34R
SALT POINT       N/A     43  36  76 CALM      30.32S
$$

SELECTED SITES ACROSS THE REGION

CITY           SKY/WX    TMP DP  RH WIND       PRES   REMARKS
HOUSTON BUSH   PTCLDY    44  43  96 S5        30.29F
HOUSTON HOBBY  PTCLDY    44  42  93 SE3       30.30F
GALVESTON      CLOUDY    50  47  89 N7        30.32F
COLLEGE STAT   CLEAR     42  37  82 W6        30.30R
CONROE         PTCLDY    37  36  96 CALM      30.30R
HUNTSVILLE     CLEAR     43  40  89 SW3       30.28R
LUFKIN         CLOUDY    39  38  96 E7        30.30R
SHREVEPORT     CLOUDY    40  30  67 SE6       30.31F
MONROE         SUNNY     35  32  88 CALM      30.37S
NATCHEZ MS     PTSUNNY   36  27  69 CALM      30.36R
BATON ROUGE    CLOUDY    39  29  67 CALM      30.34R
N.O. INTL ARPT PTSUNNY   48  32  53 E7        30.31F
SLIDELL        CLOUDY    34  32  92 NE5       30.35F WCI  30
$$

MARINE REPORTS

STATION/POSITION TIME  SKY/WX   TEMP    WIND        PRES    VSBY
                                AIR SEA DIR/SP/G
                 (UTC)          (F)     (DEG/KT/KT) (MB)    (MI)
BUOY 30 S HIGH I 1350            53 57  320/ 19/ 23 1026.3R
WVE H/P(F/S)=  2/ 4

SEA RIM ST PARK  1400            45     340/ 13/ 16 1027.8R
PORT ARTHUR      1300               56  110/  8/ 10 1025.6F
SABINE PASS N    1300            53 57  130/  8/ 10 1026.8F
TEXAS POINT      NOT AVBL
CALCASIEU PASS   1300            52 57  150/ 10/ 14 1024.8S
LK CHARLES BEACH 1300            42 54              1026.7F
MARSH ISLAND     1300            50     110/  9/ 10   N/A
WVE H/P(F/S)=  0

FRESH WATER LOCK 1300            45 55   80/  5/  5 1026.8S
AMERADA PASS     1300            44 50   60/  2/  4 1026.6R
$$



USA.gov is the U.S. government's official web portal to all federal, state and local government web resources and services.